OH7GGX-14 Weather Reports


time (UTC)temp
C
wind
direction
speed
KPH
gust
KPH
rain 1hr
cm
rain 24hr
cm
rain mn
cm
humidity
%
barometer
mb
20260503230137 -1 223 0.0 0.0 0.00 0.03 0.00 99 1009.5
20260503225137 -1 223 0.0 0.0 0.00 0.03 0.00 99 1009.5
20260503224137 -1 223 0.0 0.0 0.00 0.03 0.00 99 1009.4
20260503223137 -1 223 0.0 0.0 0.00 0.03 0.00 99 1009.4
20260503222137 -1 223 0.0 0.0 0.00 0.03 0.00 99 1009.3
20260503221137 0 334 0.0 0.0 0.00 0.03 0.00 99 1009.3
20260503220137 0 223 0.0 0.0 0.00 0.03 0.00 99 1009.3
20260503215137 0 223 0.0 0.0 0.00 0.03 0.00 99 1009.4
20260503214137 0 223 0.0 0.0 0.00 0.03 0.00 99 1009.4
20260503213137 0 223 0.0 0.0 0.00 0.03 0.00 98 1009.3
20260503212137 0 223 0.0 0.0 0.00 0.03 0.00 96 1009.2
20260503211137 0 223 0.0 0.0 0.00 0.03 0.03 95 1009.3
20260503210137 0 334 0.0 0.0 0.00 0.03 0.03 94 1009.3
20260503205137 0 223 0.0 0.0 0.00 0.03 0.03 93 1009.3
20260503204137 1 223 0.0 0.0 0.00 0.03 0.03 92 1009.3
20260503203137 1 307 0.0 0.0 0.00 0.03 0.03 91 1009.1
20260503202137 1 267 0.0 0.0 0.00 0.03 0.03 89 1009.1
20260503201137 1 267 0.0 0.0 0.00 0.03 0.03 88 1009.1
20260503200137 2 267 0.0 0.0 0.00 0.03 0.03 87 1008.9
20260503195137 2 267 0.0 0.0 0.00 0.03 0.03 86 1009.0
20260503194137 2 267 0.0 1.6 0.00 0.03 0.03 85 1008.9
20260503193137 3 295 0.0 1.6 0.00 0.03 0.03 82 1008.8
20260503192137 3 267 0.0 0.0 0.00 0.03 0.03 80 1008.8
20260503191137 3 223 0.0 1.6 0.00 0.03 0.03 77 1008.8
20260503190137 4 178 0.0 0.0 0.00 0.03 0.03 74 1008.8
20260503185137 5 267 0.0 1.6 0.00 0.03 0.03 73 1008.6
20260503184137 6 312 0.0 0.0 0.00 0.03 0.03 70 1008.6
20260503183137 6 302 0.0 0.0 0.00 0.03 0.03 67 1008.6
20260503182138 7 313 0.0 0.0 0.00 0.03 0.03 64 1008.6
20260503181137 8 312 0.0 1.6 0.00 0.03 0.03 62 1008.5
20260503180137 9 345 0.0 1.6 0.00 0.03 0.03 60 1008.2
20260503175137 10 278 0.0 8.0 0.00 0.03 0.03 58 1008.2
20260503174137 10 312 0.0 6.4 0.00 0.03 0.03 58 1008.2
20260503173137 10 327 0.0 4.8 0.00 0.03 0.03 57 1008.1
20260503172137 11 306 3.2 6.4 0.00 0.03 0.03 57 1008.0
20260503171137 11 257 0.0 6.4 0.00 0.03 0.03 57 1007.8
20260503170137 11 243 1.6 4.8 0.00 0.03 0.03 57 1007.8
20260503160137 12 320 3.2 8.0 0.00 0.03 0.03 55 1007.5
20260503150138 12 286 1.6 11.3 0.00 0.03 0.03 55 1007.4
20260503140138 12 237 8.0 16.1 0.00 0.03 0.03 55 1007.2
20260503131138 12 291 8.0 11.3 0.00 0.03 0.03 60 1007.1
20260503130138 12 312 0.0 11.3 0.00 0.03 0.03 60 1006.9
20260503120138 12 293 1.6 12.9 0.00 0.03 0.03 70 1006.9
20260503110138 12 295 6.4 8.0 0.00 0.03 0.03 77 1006.5
20260503100138 12 267 1.6 12.9 0.03 0.03 0.03 91 1006.0
20260503090138 12 306 0.0 3.2 0.00 0.00 0.00 84 1005.9
20260503081138 12 334 0.0 1.6 0.00 0.00 0.00 82 1005.4
20260503080138 11 267 3.2 4.8 0.00 0.00 0.00 85 1005.5
20260503072138 11 336 1.6 1.6 0.00 0.00 0.00 92 1005.7
20260503071138 11 336 0.0 0.0 0.00 0.00 0.00 93 1005.6
20260503070138 10 340 0.0 1.6 0.00 0.00 0.00 94 1005.7
20260503060138 9 267 0.0 3.2 0.00 0.00 0.00 99 1006.1
20260503054138 9 267 0.0 3.2 0.00 0.00 0.00 99 1006.1
20260503053138 9 267 0.0 3.2 0.00 0.00 0.00 99 1006.0
20260503052138 8 267 1.6 3.2 0.00 0.00 0.00 99 1005.9
20260503051139 8 267 0.0 3.2 0.00 0.00 0.00 99 1006.0
20260503050139 8 267 0.0 0.0 0.00 0.00 0.00 99 1006.0
20260503045139 7 267 0.0 3.2 0.00 0.00 0.00 99 1006.0
20260503044139 7 267 3.2 3.2 0.00 0.00 0.00 99 1006.1
20260503043139 7 267 1.6 3.2 0.00 0.00 0.00 99 1006.0
20260503042139 7 267 0.0 3.2 0.00 0.00 0.00 99 1005.9
20260503041139 7 267 0.0 3.2 0.00 0.00 0.00 99 1006.0
20260503040139 6 267 0.0 1.6 0.00 0.00 0.00 99 1005.9
20260503035139 6 267 0.0 1.6 0.00 0.00 0.00 99 1005.8
20260503034139 6 267 0.0 0.0 0.00 0.00 0.00 99 1005.6
20260503033139 6 267 0.0 0.0 0.00 0.00 0.00 99 1005.5
20260503032139 6 267 0.0 0.0 0.00 0.00 0.00 99 1005.3
20260503031139 6 267 0.0 0.0 0.00 0.00 0.00 99 1005.2
20260503030139 6 267 0.0 0.0 0.00 0.00 0.00 99 1005.2
20260503025139 6 267 0.0 0.0 0.00 0.00 0.00 99 1005.2
20260503024139 5 267 0.0 0.0 0.00 0.00 0.00 99 1005.2
20260503023139 5 267 0.0 0.0 0.00 0.00 0.00 99 1005.2
20260503022139 5 267 0.0 0.0 0.00 0.00 0.00 99 1005.3
20260503021139 5 267 0.0 1.6 0.00 0.00 0.00 99 1005.4
20260503020139 5 267 0.0 3.2 0.00 0.00 0.00 99 1005.3
20260503015139 5 267 0.0 1.6 0.00 0.00 0.00 99 1005.2
20260503014139 5 267 0.0 0.0 0.00 0.00 0.00 99 1005.3
20260503013139 5 267 0.0 1.6 0.00 0.00 0.00 99 1005.3
20260503012139 5 267 0.0 1.6 0.00 0.00 0.00 99 1005.4
20260503011139 6 267 0.0 0.0 0.00 0.00 0.00 98 1005.3
20260503010139 6 267 0.0 0.0 0.00 0.00 0.00 97 1005.4
20260503005139 6 267 0.0 0.0 0.00 0.00 0.00 97 1005.3
20260503004139 6 267 0.0 0.0 0.00 0.00 0.00 97 1005.3
20260503003139 6 267 0.0 0.0 0.00 0.00 0.00 97 1005.3
20260503002139 6 267 0.0 0.0 0.00 0.00 0.00 96 1005.3
20260503001139 6 267 0.0 0.0 0.00 0.00 0.00 95 1005.4
20260503000139 6 267 0.0 0.0 0.00 0.00 0.00 95 1005.4
20260502235139 6 267 0.0 0.0 0.00 0.00 0.00 95 1005.3
20260502234139 6 267 0.0 0.0 0.00 0.00 0.00 94 1005.6
20260502233139 6 267 0.0 0.0 0.00 0.00 0.00 93 1005.4
20260502232139 6 267 0.0 0.0 0.00 0.00 0.00 93 1005.4
20260502231139 6 267 0.0 0.0 0.00 0.00 0.00 92 1005.3